Lewistown, MT

9:27 AM MST on February 20, 2017 (GMT -0700)
Lewistown Municipal

Weather History for KLWT - April, 2013

Change the Weather History Date:

Tuesday, April 23, 2013

  Actual Average Record
Temperature  
Mean Temperature 30 °F 43 °F  
Max Temperature 47 °F 56 °F 83 °F (2012)
Min Temperature 13 °F 31 °F 13 °F (1931)
Degree Days  
Heating Degree Days 35 22  
Month to date heating degree days 724 565  
Since 1 July heating degree days 7278 7364  
Cooling Degree Days 0 0  
Month to date cooling degree days 0 0  
Year to date cooling degree days 0 0  
Moisture  
Dew Point 17 °F    
Average Humidity 54    
Maximum Humidity 80    
Minimum Humidity 28    
Precipitation  
Precipitation 0.02 in 0.05 in 4.50 in (1900)
Month to date precipitation 1.17 1.01  
Year to date precipitation 3.30 3.01  
Snow  
Snow 0.00 in - - ()
Snow Depth 0.00 in    
Sea Level Pressure  
Sea Level Pressure 30.23 in    
Wind  
Wind Speed 10 mph (West)    
Max Wind Speed 26 mph    
Max Gust Speed 37 mph    
Visibility 10 miles    
Events      
T = Trace of Precipitation, MM = Missing Value Source: NWS Daily Summary

Daily Weather History Graph

Daily Weather History Graph

Search for Another Location

Airport or City:

Trip Planner

Search our weather history database for the weather conditions in past years. The results will help you decide how hot, cold, wet, or windy it might be!

Date:

Astronomy

Apr. 23, 2013 Rise Set
Actual Time 6:15 AM MDT 8:18 PM MDT
Civil Twilight 5:42 AM MDT 8:51 PM MDT
Nautical Twilight 5:01 AM MDT 9:31 PM MDT
Astronomical Twilight 4:16 AM MDT 10:17 PM MDT
Moon 6:10 PM MDT (4/23) 4:53 AM MDT (4/23)
Length of Visible Light 15h 09m
Length of Day
14h 03m
Waxing Gibbous, 94% of the Moon is Illuminated
Apr 23
Waxing Gibbous
Apr 25
Full
May 2
Last Quarter
May 9
New
May 17
First Quarter

Hourly Weather History & Observations

Time (MDT) Temp. Windchill Dew Point Humidity Pressure Visibility Wind Dir Wind Speed Gust Speed Precip Events Conditions
12:54 AM 17.1 °F 10.0 °F 12.9 °F 84% 30.40 in 10.0 mi SE 4.6 mph - N/A   Clear
1:54 AM 16.0 °F 7.4 °F 10.9 °F 81% 30.38 in 10.0 mi East 5.8 mph - N/A   Clear
2:54 AM 17.1 °F 10.0 °F 10.9 °F 77% 30.35 in 10.0 mi SE 4.6 mph - N/A   Clear
4:54 AM 15.1 °F 9.4 °F 10.0 °F 80% 30.33 in 10.0 mi South 3.5 mph - N/A   Clear
5:54 AM 15.1 °F 7.7 °F 9.0 °F 77% 30.32 in 10.0 mi SE 4.6 mph - N/A   Clear
6:54 AM 18.0 °F 11.1 °F 10.0 °F 71% 30.30 in 10.0 mi SSE 4.6 mph - N/A   Clear
7:54 AM 21.9 °F 15.7 °F 15.1 °F 75% 30.29 in 10.0 mi ESE 4.6 mph - N/A   Clear
8:54 AM 28.0 °F - 17.1 °F 63% 30.28 in 10.0 mi Calm Calm - N/A   Clear
9:54 AM 35.1 °F 27.9 °F 12.9 °F 40% 30.25 in 10.0 mi WSW 9.2 mph - N/A   Clear
10:54 AM 37.0 °F 31.0 °F 16.0 °F 42% 30.23 in 10.0 mi West 8.1 mph - N/A   Clear
11:54 AM 42.1 °F 37.1 °F 19.0 °F 40% 30.21 in 10.0 mi WNW 8.1 mph - N/A   Clear
12:54 PM 44.1 °F 37.7 °F 17.1 °F 34% 30.19 in 10.0 mi NW 12.7 mph 20.7 mph N/A   Mostly Cloudy
1:54 PM 45.0 °F 39.3 °F 14.0 °F 29% 30.17 in 10.0 mi WNW 11.5 mph 20.7 mph N/A   Mostly Cloudy
2:54 PM 45.0 °F 36.4 °F 18.0 °F 34% 30.17 in 10.0 mi West 23.0 mph 28.8 mph N/A   Overcast
3:54 PM 42.1 °F 33.1 °F 21.0 °F 43% 30.18 in 10.0 mi West 20.7 mph 36.8 mph N/A   Mostly Cloudy
4:25 PM 42.8 °F 33.3 °F 21.2 °F 42% 30.08 in 10.0 mi NW 24.2 mph 36.8 mph N/A   Mostly Cloudy
4:54 PM 41.0 °F 31.6 °F 23.0 °F 49% 30.19 in 10.0 mi NNW 20.7 mph 31.1 mph N/A   Overcast
5:54 PM 41.0 °F 33.5 °F 21.0 °F 45% 30.19 in 10.0 mi WNW 13.8 mph 21.9 mph N/A   Overcast
6:54 PM 39.9 °F 32.1 °F 21.0 °F 47% 30.18 in 10.0 mi NW 13.8 mph 21.9 mph N/A   Overcast
7:54 PM 39.0 °F 30.3 °F 19.9 °F 46% 30.18 in 10.0 mi WNW 16.1 mph 23.0 mph N/A   Overcast
8:54 PM 36.0 °F 29.0 °F 21.9 °F 57% 30.19 in 10.0 mi NNW 9.2 mph 17.3 mph N/A   Overcast
9:54 PM 34.0 °F 27.2 °F 25.0 °F 70% 30.18 in 10.0 mi WSW 8.1 mph - N/A   Mostly Cloudy
10:54 PM 35.1 °F 28.6 °F 24.1 °F 64% 30.18 in 10.0 mi WSW 8.1 mph - N/A   Overcast
11:54 PM 33.1 °F 24.9 °F 27.0 °F 78% 30.18 in 10.0 mi North 10.4 mph - N/A   Overcast